#timestamp,LO_Frequency,Hit,StdDev 
1514440815.2,286046997.6,N
1514440835.9,286046997.0,N
1514440855.7,286046996.1,N
1514440875.6,286046996.7,N
1514440895.4,286046997.4,N
1514440915.3,286046997.4,N
1514440935.1,286046998.8,N
1514440936.0,286046998.8,N
1514440955.8,286046996.9,N
1514440975.7,286046999.3,N
1514440995.5,286047000.7,N
1514441015.3,286046998.9,N
1514441035.2,286046997.8,N
1514441055.0,286046999.0,N
1514441055.9,286046999.0,N
1514441075.8,286047000.1,N
1514441095.6,286047002.6,N
1514441115.4,286046999.7,N
1514441135.3,286046998.3,N
1514441155.1,286047002.4,N
1514441175.9,286047001.5,N
1514441195.7,286047004.2,N
1514441215.5,286047002.1,N
1514441235.4,286047002.1,N
1514441255.2,286047000.5,N
1514441275.0,286046998.9,N
1514441276.0,286046998.9,N
1514441295.8,286046999.0,N
1514441315.6,286046996.9,N
1514441335.5,286046998.3,N
1514441355.3,286047001.2,N
1514441375.1,286047000.2,N
1514441395.9,286047002.5,N
1514441415.7,286047001.5,N
1514441435.6,286047001.4,N
1514441455.4,286047001.8,N
1514441475.2,286047004.3,N
1514441495.1,286047004.0,N
1514441496.0,286047004.0,N
1514441515.8,286047001.8,N
1514441535.7,286047003.0,N
1514441555.5,286047005.3,N
1514441575.3,286047006.3,N
1514441595.2,286047007.3,Y
1514441615.0,286047007.1,P
1514441615.9,286047007.1,N
1514441635.7,286047003.1,N
1514441655.6,286047003.4,N
1514441675.4,286047003.8,N
1514441695.3,286047003.2,N
1514441715.1,286047001.7,N
1514441735.8,286047000.6,N
1514441755.7,286047001.9,N
1514441775.5,286047001.6,N
1514441795.4,286047002.0,N
1514441815.2,286047002.8,N
1514441835.0,286047001.1,N
1514441835.9,286047001.1,N
1514441855.8,286047002.5,N
1514441875.6,286047001.6,N
1514441895.5,286047001.4,N
1514441915.3,286047002.5,N
1514441935.1,286047002.0,N
1514441955.9,286047002.5,N
1514441975.7,286047001.9,N
1514441995.5,286047001.3,N
1514442015.4,286047002.1,N
1514442035.2,286047000.2,N
1514442055.1,286046998.1,N
1514442056.0,286046998.1,N
1514442075.8,286046999.9,N
1514442095.6,286047000.8,N
1514442115.5,286047002.0,N
1514442135.3,286047003.5,N
1514442155.2,286047003.2,N
1514442175.9,286047003.8,N
1514442195.7,286047005.4,Y
1514442215.6,286047001.6,P
1514442235.4,286047002.7,P
1514442255.3,286047002.0,P
1514442275.1,286047003.9,Y
1514442276.0,286047003.9,P
1514442295.8,286046999.9,N
1514442315.7,286047000.5,N
1514442335.5,286047002.6,N
1514442355.4,286047002.5,N
1514442375.2,286047002.8,N
1514442395.0,286047002.2,N
1514442395.9,286047002.2,N
1514442415.8,286046999.9,N
1514442435.6,286046998.7,N
1514442455.4,286046999.1,N
1514442475.3,286046995.5,N
1514442495.1,286046995.3,N
1514442515.9,286046997.3,N
1514442535.7,286046998.3,N
1514442555.5,286047000.9,N
1514442575.4,286047000.4,N
1514442595.2,286046999.8,N
1514442615.1,286046999.7,N
1514442616.0,286046999.7,N
1514442635.8,286046999.8,N
1514442655.6,286047002.7,N
1514442675.5,286047002.5,N
1514442695.3,286047004.2,N
1514442715.2,286047004.0,N
1514442735.9,286047004.0,N
1514442755.7,286047001.3,N
1514442775.6,286047000.0,N
1514442795.4,286047000.8,N
1514442815.2,286046999.9,N
1514442835.1,286047004.3,N
1514442836.0,286047004.3,N
1514442855.8,286047003.9,N
1514442875.7,286047004.3,N
1514442895.5,286047003.2,N
1514442915.3,286047005.7,N
1514442935.2,286047004.2,N
1514442955.0,286047004.2,N
1514442955.9,286047004.2,N
1514442975.8,286047002.2,N
1514442995.6,286047000.2,N
1514443045.5,286046998.9,E
1514443055.4,286046998.8,N
1514443075.2,286047000.8,P
1514443095.1,286046996.7,P
1514443096.0,286046996.7,N
1514443115.8,286046996.5,N
1514443135.6,286046998.7,N
1514443155.5,286046998.6,N
1514443175.3,286046999.0,N
1514443195.2,286046997.0,N
1514443215.9,286046996.6,N
1514443235.7,286047000.6,N
1514443255.6,286047000.8,N
1514443275.4,286047000.8,N
1514443295.3,286046998.9,N
1514443315.1,286046995.3,N
1514443316.0,286046995.3,N
1514443335.8,286046997.5,N
1514443355.7,286046999.2,N
1514443375.5,286046998.9,N
1514443395.4,286046993.9,Y
1514443415.2,286046996.3,P
1514443435.0,286046996.7,P
1514443435.9,286046996.7,P
1514443455.8,286046999.9,N
1514443475.6,286046998.5,N
1514443495.4,286046998.5,N
1514443515.3,286047001.2,N
1514443535.1,286047000.2,N
1514443555.9,286047000.5,N
1514443575.7,286047000.0,N
1514443595.5,286047002.6,N
1514443615.4,286047001.0,N
1514443635.2,286046999.5,N
1514443655.1,286046999.6,N
1514443656.0,286046999.6,N
1514443675.8,286046997.0,N
1514443695.6,286046999.3,N
1514443715.5,286047000.4,N
1514443735.3,286047002.4,N
1514443755.1,286047002.7,N
1514443775.9,286047002.6,N
1514443795.7,286047002.5,N
1514443815.6,286047001.5,N
1514443835.4,286047003.4,N
1514443855.2,286047001.7,N
1514443875.1,286047003.9,N
1514443876.0,286047003.9,N
1514443895.8,286047004.1,N
1514443915.7,286047002.2,N
1514443935.5,286047000.2,N
1514443955.3,286047001.5,N
1514443975.2,286047005.5,N
1514443995.0,286047003.7,N
1514443995.9,286047003.7,N
1514444015.7,286047004.8,N
1514444035.6,286047007.6,Y
1514444055.4,286047003.5,P
1514444075.3,286047001.5,N
1514444095.1,286047001.8,N
1514444115.8,286046999.7,N
1514444135.7,286047001.6,N
1514444155.5,286046999.7,N
1514444175.4,286047000.0,N
1514444195.2,286047002.2,N
1514444215.0,286047001.7,N
1514444215.9,286047001.7,N
1514444235.8,286047004.4,Y
1514444255.6,286046999.9,P
1514444275.5,286046998.1,N
1514444295.3,286047001.0,N
1514444315.1,286046999.7,N
1514444335.9,286047001.9,N
1514444355.7,286047003.9,Y
1514444375.6,286047004.4,P
1514444395.4,286047003.8,N
